Temp
-8 -7 -7 -7 -8 -7 -7 -7 -7 -8 -7 -7 -7 -7 -7 -7 -7 -7 -7 -7 -7 -7 -7 -7 -6 -6 -6 -6 -6 -6 -6 -6 -6 -7 -7 -7 -7 -7 -7 -7 -7 -7 -7
-8 -7 -8 -7 -8 -8 -7 -7 -7 -8 -8 -8 -8 -8 -8 -8 -8 -7 -7 -7 -7 -7 -7 -7 -7 -7 -7 -6 -6 -6 -6 -6 -6 -6 -7 -7 -7 -8 -7 -7 -7 -7 -7
-8 -9 -9 -9 -10 -9 -8 -8 -7 -7 -7 -8 -8 -8 -8 -8 -8 -8 -8 -8 -8 -8 -8 -7 -7 -7 -7 -6 -6 -6 -6 -6 -6 -6 -6 -7 -8 -8 -8 -8 -8 -7 -7
-9 -9 -9 -9 -9 -9 -8 -8 -8 -8 -8 -8 -8 -8 -8 -8 -8 -8 -8 -8 -8 -8 -8 -7 -7 -7 -7 -8 -7 -6 -6 -6 -6 -6 -6 -7 -7 -8 -8 -7 -7 -7 -7
-9 -9 -8 -8 -9 -8 -8 -8 -8 -8 -8 -8 -8 -8 -8 -8 -8 -8 -8 -8 -8 -7 -7 -7 -7 -7 -7 -7 -7 -7 -7 -7 -7 -6 -6 -6 -7 -8 -8 -8 -8 -8 -7
-9 -8 -7 -7 -8 -8 -8 -8 -8 -8 -8 -8 -8 -8 -8 -8 -8 -8 -8 -8 -8 -7 -7 -7 -7 -7 -7 -6 -7 -7 -7 -7 -7 -7 -7 -7 -7 -7 -8 -8 -8 -7 -7
-8 -7 -7 -7 -7 -7 -7 -7 -7 -7 -7 -7 -7 -8 -8 -8 -8 -8 -8 -7 -6 -5 -7 -6 -7 -7 -7 -6 -6 -8 -8 -7 -7 -7 -7 -7 -7 -7 -7 -7 -8 -8 -8
-7 -7 -7 -6 -7 -6 -6 -7 -7 -7 -7 -7 -7 -7 -7 -7 -8 -8 -8 -8 -8 -7 -8 -9 -9 -8 -8 -8 -8 -8 -9 -8 -9 -8 -8 -8 -8 -8 -8 -7 -8 -8 -8
-7 -7 -6 -6 -6 -6 -6 -6 -6 -6 -6 -6 -7 -6 -6 -7 -7 -7 -8 -7 -7 -8 -8 -8 -7 -7 -8 -9 -8 -8 -8 -8 -9 -9 -8 -8 -8 -8 -8 -8 -8 -8 -8
-7 -7 -7 -7 -7 -7 -7 -7 -6 -6 -6 -6 -6 -6 -6 -6 -6 -6 -7 -7 -7 -7 -7 -8 -8 -7 -7 -7 -8 -8 -9 -9 -9 -8 -8 -8 -8 -8 -8 -8 -8 -8 -9
-7 -7 -7 -7 -7 -7 -7 -7 -7 -7 -7 -7 -6 -6 -6 -6 -6 -6 -6 -6 -6 -7 -7 -7 -7 -7 -7 -7 -7 -8 -8 -8 -7 -7 -7 -7 -7 -8 -8 -8 -9 -9 -9
-7 -7 -7 -7 -7 -8 -8 -7 -7 -7 -7 -7 -7 -7 -7 -6 -7 -6 -6 -6 -7 -7 -7 -7 -7 -7 -7 -7 -7 -7 -7 -7 -7 -7 -7 -7 -7 -7 -7 -8 -9 -9 -9
-8 -8 -8 -8 -8 -8 -7 -7 -7 -7 -6 -6 -6 -6 -6 -6 -6 -7 -6 -6 -7 -7 -7 -7 -7 -7 -7 -7 -7 -7 -7 -7 -7 -7 -7 -7 -8 -7 -7 -8 -8 -9 -9
-8 -8 -8 -8 -8 -8 -8 -7 -7 -7 -7 -7 -7 -6 -6 -6 -6 -6 -6 -6 -6 -7 -7 -7 -7 -7 -7 -7 -7 -7 -7 -7 -7 -7 -8 -8 -8 -8 -8 -8 -8 -9 -9
-8 -8 -8 -8 -8 -8 -8 -8 -8 -7 -7 -7 -7 -7 -7 -7 -7 -7 -7 -7 -7 -7 -7 -7 -7 -7 -7 -7 -7 -7 -7 -7 -8 -8 -8 -8 -8 -8 -8 -8 -8 -8 -9
-8 -7 -7 -7 -8 -7 -7 -7 -7 -7 -7 -7 -7 -7 -7 -7 -7 -7 -7 -7 -7 -7 -7 -7 -7 -7 -7 -7 -7 -7 -7 -7 -8 -8 -8 -8 -8 -8 -9 -9 -8 -8 -8
-7 -7 -7 -8 -7 -7 -7 -7 -7 -7 -7 -7 -7 -7 -7 -7 -7 -7 -7 -7 -7 -7 -7 -8 -8 -8 -8 -7 -8 -8 -8 -8 -8 -8 -8 -8 -8 -8 -9 -9 -9 -8 -8
-7 -7 -7 -7 -7 -7 -7 -7 -7 -7 -7 -7 -7 -7 -7 -7 -7 -7 -7 -7 -7 -7 -7 -8 -8 -8 -8 -8 -8 -8 -8 -8 -8 -8 -8 -8 -9 -9 -9 -9 -9 -9 -9
-7 -7 -7 -7 -7 -7 -7 -7 -7 -7 -7 -8 -8 -7 -7 -7 -8 -8 -8 -7 -7 -8 -8 -8 -9 -9 -9 -9 -9 -9 -9 -9 -9 -9 -9 -9 -9 -9 -9 -9 -9 -9 -9
-7 -7 -7 -7 -7 -7 -7 -7 -7 -7 -7 -7 -8 -8 -8 -8 -8 -8 -8 -8 -9 -8 -8 -9 -9 -9 -9 -9 -9 -9 -9 -9 -9 -9 -9 -10 -10 -9 -9 -9 -10 -9 -10
-7 -7 -7 -7 -7 -8 -8 -8 -7 -7 -7 -8 -8 -8 -8 -7 -8 -8 -8 -8 -9 -8 -9 -9 -9 -9 -9 -9 -9 -9 -9 -9 -9 -9 -10 -10 -10 -9 -10 -10 -10 -9 -10
-8 -8 -8 -8 -8 -8 -8 -8 -8 -8 -8 -8 -8 -8 -8 -8 -8 -8 -9 -9 -9 -9 -9 -9 -9 -9 -9 -9 -9 -9 -9 -9 -9 -9 -10 -10 -10 -10 -9 -9 -9 -9 -10
-8 -8 -8 -8 -8 -8 -8 -8 -8 -8 -8 -8 -9 -9 -9 -9 -9 -9 -9 -9 -9 -9 -9 -10 -9 -9 -9 -9 -9 -9 -9 -9 -9 -10 -9 -10 -10 -10 -10 -9 -9 -10 -10
-8 -8 -8 -8 -9 -9 -9 -9 -9 -8 -8 -9 -9 -9 -9 -9 -9 -9 -9 -9 -9 -9 -9 -10 -10 -9 -9 -9 -9 -9 -9 -9 -9 -10 -10 -10 -10 -10 -10 -10 -10 -10 -10
-9 -9 -9 -9 -9 -9 -9 -9 -9 -9 -9 -9 -9 -9 -9 -9 -9 -9 -9 -9 -9 -10 -10 -10 -9 -9 -9 -9 -9 -9 -9 -9 -10 -11 -10 -11 -10 -11 -11 -10 -11 -10 -10
-9 -9 -9 -9 -9 -10 -10 -10 -10 -10 -10 -10 -10 -10 -10 -10 -10 -10 -10 -10 -10 -10 -9 -10 -10 -10 -9 -9 -9 -9 -9 -10 -11 -11 -11 -11 -11 -11 -11 -11 -11 -11 -10
Height
5933 5931 5928 5924 5928 5932 5934 5935 5935 5937 5938 5938 5937 5936 5936 5934 5933 5933 5932 5932 5931 5930 5930 5929 5928 5927 5927 5926 5926 5925 5924 5923 5921 5922 5921 5920 5919 5918 5919 5919 5919 5920 5921
5930 5927 5918 5905 5920 5930 5932 5934 5933 5934 5935 5935 5935 5934 5934 5933 5932 5931 5930 5929 5929 5928 5927 5925 5924 5923 5922 5921 5921 5921 5921 5920 5918 5917 5917 5916 5914 5914 5914 5914 5914 5915 5916
5929 5928 5927 5923 5923 5929 5931 5933 5933 5932 5933 5932 5932 5932 5932 5930 5929 5929 5927 5926 5925 5923 5921 5919 5918 5917 5916 5915 5914 5914 5915 5915 5914 5913 5912 5911 5909 5909 5909 5909 5909 5909 5910
5928 5928 5929 5929 5929 5929 5929 5930 5930 5929 5929 5928 5929 5929 5928 5927 5926 5925 5923 5922 5920 5917 5915 5914 5913 5912 5911 5909 5908 5908 5908 5909 5908 5907 5907 5906 5905 5904 5904 5904 5905 5904 5904
5926 5926 5925 5926 5926 5926 5926 5926 5926 5926 5925 5925 5925 5925 5924 5923 5921 5920 5917 5916 5916 5914 5911 5909 5909 5908 5905 5904 5902 5903 5902 5901 5903 5901 5901 5900 5901 5900 5899 5899 5899 5899 5898
5923 5922 5922 5922 5922 5923 5922 5922 5922 5922 5920 5920 5921 5920 5919 5917 5916 5913 5912 5912 5904 5904 5904 5901 5898 5896 5894 5894 5894 5896 5896 5895 5897 5897 5896 5895 5896 5897 5895 5894 5894 5894 5894
5920 5919 5918 5918 5918 5918 5919 5919 5917 5916 5916 5916 5915 5914 5913 5911 5909 5908 5907 5898 5894 5871 5892 5884 5887 5884 5873 5880 5881 5883 5886 5889 5891 5893 5891 5891 5891 5891 5891 5889 5888 5888 5889
5918 5917 5916 5916 5915 5914 5914 5914 5913 5912 5911 5911 5910 5909 5907 5906 5904 5902 5898 5895 5885 5884 5881 5885 5879 5880 5877 5873 5869 5872 5879 5882 5886 5887 5885 5884 5886 5885 5885 5883 5883 5881 5882
5915 5917 5916 5914 5913 5912 5910 5909 5908 5906 5906 5905 5904 5903 5902 5900 5899 5897 5893 5891 5891 5888 5882 5885 5880 5882 5881 5876 5873 5877 5876 5875 5881 5882 5879 5879 5879 5879 5878 5877 5876 5875 5875
5913 5913 5912 5910 5909 5908 5907 5906 5904 5902 5900 5899 5898 5897 5895 5894 5893 5890 5885 5884 5884 5885 5884 5878 5878 5877 5877 5877 5877 5875 5872 5873 5876 5876 5876 5875 5874 5874 5873 5871 5870 5868 5867
5910 5909 5908 5906 5905 5904 5902 5899 5898 5896 5894 5893 5892 5889 5887 5886 5885 5883 5880 5878 5875 5876 5875 5873 5872 5872 5872 5871 5873 5873 5873 5873 5873 5872 5871 5869 5867 5867 5867 5865 5863 5860 5859
5905 5905 5903 5900 5898 5897 5895 5893 5891 5888 5887 5886 5883 5880 5878 5877 5876 5876 5874 5873 5872 5870 5868 5868 5867 5866 5866 5866 5868 5866 5866 5865 5866 5865 5864 5863 5861 5860 5858 5857 5854 5850 5851
5901 5899 5897 5894 5892 5890 5888 5886 5884 5882 5880 5878 5876 5873 5870 5867 5866 5866 5865 5864 5863 5862 5861 5860 5859 5859 5859 5859 5859 5858 5857 5857 5857 5856 5853 5854 5854 5853 5851 5848 5846 5841 5842
5893 5891 5889 5886 5885 5884 5881 5879 5878 5875 5873 5870 5867 5864 5861 5859 5856 5854 5855 5854 5853 5853 5852 5852 5851 5851 5850 5851 5849 5848 5848 5847 5846 5845 5844 5843 5844 5843 5843 5839 5837 5834 5833
5885 5883 5881 5879 5876 5875 5873 5872 5870 5867 5864 5861 5858 5855 5852 5850 5846 5845 5843 5842 5842 5842 5842 5842 5841 5840 5839 5839 5839 5838 5836 5835 5834 5834 5832 5832 5832 5833 5832 5831 5829 5828 5826
5877 5875 5872 5871 5868 5866 5863 5861 5859 5856 5854 5850 5847 5845 5842 5839 5837 5834 5832 5830 5830 5830 5830 5830 5828 5828 5827 5826 5825 5826 5825 5823 5822 5820 5821 5821 5822 5822 5822 5821 5821 5821 5820
5871 5868 5866 5864 5860 5858 5855 5852 5849 5846 5842 5840 5836 5832 5829 5827 5824 5822 5820 5818 5817 5816 5815 5815 5815 5814 5813 5813 5812 5812 5812 5811 5808 5808 5809 5809 5810 5810 5811 5811 5811 5812 5812
5865 5862 5861 5856 5853 5850 5846 5843 5839 5836 5832 5829 5824 5821 5817 5814 5811 5808 5806 5804 5803 5801 5801 5798 5798 5797 5796 5795 5795 5795 5796 5796 5795 5796 5796 5796 5797 5798 5799 5800 5801 5802 5802
5857 5854 5850 5847 5844 5841 5837 5833 5829 5824 5820 5817 5813 5809 5804 5802 5799 5795 5792 5790 5789 5788 5785 5785 5783 5783 5782 5782 5781 5781 5781 5783 5783 5782 5782 5783 5785 5784 5786 5787 5788 5792 5791
5848 5847 5841 5838 5835 5831 5827 5822 5817 5813 5809 5805 5801 5797 5793 5791 5786 5784 5781 5780 5777 5774 5774 5772 5770 5769 5769 5769 5769 5768 5769 5769 5769 5769 5770 5770 5771 5772 5772 5774 5775 5778 5779
5839 5836 5833 5828 5824 5820 5815 5810 5806 5802 5798 5795 5791 5786 5781 5778 5775 5772 5769 5765 5762 5762 5760 5758 5759 5758 5756 5755 5755 5754 5755 5755 5755 5756 5756 5758 5758 5758 5759 5759 5762 5764 5767
5830 5825 5821 5817 5814 5809 5805 5800 5796 5792 5788 5784 5780 5776 5771 5766 5762 5758 5755 5752 5748 5746 5745 5744 5744 5743 5743 5741 5740 5739 5740 5740 5741 5742 5743 5742 5743 5744 5745 5745 5743 5748 5753
5819 5815 5811 5807 5803 5799 5795 5790 5786 5782 5778 5774 5769 5765 5761 5756 5751 5746 5742 5738 5735 5732 5729 5727 5726 5726 5726 5725 5724 5723 5723 5725 5725 5725 5727 5728 5728 5729 5732 5730 5733 5734 5739
5809 5805 5801 5797 5794 5790 5786 5782 5778 5774 5769 5764 5760 5754 5749 5745 5740 5734 5729 5725 5720 5716 5713 5710 5708 5707 5707 5707 5706 5705 5705 5706 5707 5708 5709 5711 5713 5716 5718 5719 5722 5723 5726
5799 5795 5792 5788 5785 5781 5777 5772 5768 5764 5759 5755 5750 5745 5740 5734 5728 5722 5716 5711 5706 5702 5698 5695 5692 5691 5690 5688 5687 5687 5686 5686 5685 5688 5690 5694 5697 5700 5703 5707 5708 5712 5715
5789 5785 5782 5779 5776 5772 5767 5764 5759 5755 5751 5745 5740 5734 5729 5723 5717 5711 5705 5698 5693 5688 5684 5681 5679 5676 5674 5672 5669 5668 5667 5667 5667 5670 5673 5676 5680 5684 5688 5692 5696 5699 5703
Wind_Speed
14 15 19 31 23 16 13 12 9 11 11 9 9 9 10 9 9 8 8 9 8 9 10 10 11 12 13 13 13 14 15 17 18 18 19 20 19 17 16 15 15 15 15
17 22 32 7 20 14 12 13 10 10 11 10 10 9 10 12 13 14 13 13 14 14 15 14 15 16 16 17 18 17 16 16 17 16 16 18 21 19 16 14 14 15 16
17 19 19 8 14 11 8 9 10 9 10 10 11 13 13 15 17 17 17 17 16 18 19 20 21 21 21 19 21 20 20 20 20 18 18 19 21 21 18 17 16 15 15
16 17 14 7 6 9 11 12 13 12 14 14 15 17 18 20 21 22 23 23 23 23 25 25 25 25 25 24 25 25 21 23 22 20 20 21 22 22 19 18 18 17 16
20 20 17 11 9 13 14 15 15 16 17 17 17 19 20 21 24 27 31 31 29 30 32 31 29 32 33 31 32 31 27 23 25 22 20 18 21 22 21 21 20 20 18
24 20 14 11 11 12 13 17 19 21 21 21 22 23 24 25 25 27 28 27 33 34 32 36 40 39 40 42 36 40 32 27 24 24 21 20 17 21 21 22 22 22 20
21 17 14 14 12 12 11 12 12 14 18 20 21 22 22 23 24 26 29 33 39 39 37 37 51 53 46 45 48 44 35 30 26 26 24 22 21 23 23 22 22 22 22
15 16 14 16 16 17 17 17 16 15 17 17 19 21 24 26 27 29 33 35 36 32 32 33 26 19 15 17 36 37 33 31 22 17 15 18 21 25 26 27 26 23 24
11 13 15 15 15 16 16 18 20 21 20 22 21 21 23 24 23 25 29 28 26 29 29 26 27 24 26 23 8 15 19 26 16 14 14 18 21 23 24 30 30 28 27
15 15 15 16 16 18 20 21 22 23 24 25 25 27 28 28 27 28 32 31 30 29 28 29 25 26 18 17 19 14 7 9 12 13 15 17 20 22 25 26 31 32 30
14 16 17 18 19 21 23 24 25 26 27 28 28 29 31 31 31 31 33 32 34 31 29 28 27 24 22 18 18 16 17 9 14 19 21 22 22 23 26 27 30 34 32
16 19 19 21 23 24 26 27 27 27 28 28 30 31 33 34 35 34 35 35 34 33 32 31 29 27 24 22 22 22 23 23 24 23 27 26 28 29 29 29 32 32 35
21 22 23 23 24 27 28 29 28 27 27 28 31 33 34 36 34 33 33 34 35 34 35 33 32 30 29 28 28 27 29 28 29 29 32 32 32 33 31 32 35 29 31
24 25 26 27 27 29 31 31 31 32 33 34 34 36 35 34 36 35 33 34 34 33 34 34 32 32 34 34 33 33 33 33 36 36 35 37 37 36 34 34 34 30 31
24 27 27 29 31 32 33 33 35 36 37 38 37 37 38 39 40 38 38 35 34 35 35 35 35 36 36 36 35 36 38 39 41 40 41 42 40 37 35 36 34 33 34
28 30 31 32 34 35 36 37 38 38 37 39 41 40 40 41 41 41 41 41 40 37 36 36 37 39 40 41 41 41 41 41 42 43 43 43 43 40 36 37 36 34 31
30 31 31 33 35 35 36 38 40 40 41 41 42 43 44 43 43 44 45 45 43 44 44 43 43 44 45 45 45 44 41 40 43 44 43 44 43 41 39 37 37 36 33
31 33 32 34 36 37 39 40 42 43 43 43 43 44 45 46 46 46 45 46 46 46 45 45 46 47 46 45 44 44 42 42 43 44 45 46 44 44 42 40 38 37 36
33 34 36 38 40 41 42 42 42 42 41 40 40 41 42 41 41 41 40 42 41 40 42 41 41 39 38 38 38 40 40 41 43 45 45 45 42 43 41 42 43 41 40
37 36 40 42 42 41 41 41 41 41 41 40 40 40 40 40 40 39 40 39 41 41 38 36 36 37 37 37 37 38 37 39 40 40 41 42 41 42 43 42 43 40 41
39 40 41 41 40 40 40 41 40 41 41 41 41 42 44 45 44 43 43 43 44 42 41 42 39 37 38 39 41 41 41 40 40 40 42 42 43 43 43 43 45 45 43
40 42 40 40 40 40 40 40 40 40 41 41 41 41 43 44 45 45 45 45 44 44 45 44 45 45 45 44 45 46 45 44 44 43 43 44 43 44 43 43 48 44 46
40 39 39 40 40 39 39 40 41 41 41 41 42 40 40 42 43 44 45 45 46 45 48 49 49 48 48 49 48 49 49 49 49 50 48 47 43 41 42 42 48 46 44
38 39 39 39 38 38 38 39 38 38 38 38 39 40 41 43 41 40 42 45 47 47 47 48 50 49 48 48 50 51 52 54 55 54 52 48 46 43 44 43 42 44 48
38 38 37 37 37 37 37 37 37 38 37 38 39 41 42 43 41 43 44 45 45 45 44 45 45 46 47 47 47 48 49 53 54 53 52 49 48 46 45 46 49 45 42
37 37 36 36 36 36 36 36 37 37 38 39 41 43 43 42 42 40 43 43 42 41 39 36 36 40 44 46 46 45 45 45 48 51 52 50 50 48 48 47 44 44 44
Wind_Direction
326 322 306 293 230 224 238 241 237 234 241 253 282 298 310 312 312 310 305 291 291 293 294 295 296 297 298 297 294 287 280 277 275 273 268 261 265 273 274 280 286 284 279
329 335 341 255 185 210 224 239 225 233 248 257 269 275 288 296 300 297 296 294 285 282 285 285 283 284 285 286 283 285 283 278 274 268 270 266 262 265 266 268 281 284 280
331 335 349 32 147 186 227 244 247 253 255 255 261 264 270 275 284 292 291 288 283 279 273 273 275 279 279 279 285 284 286 285 282 272 265 262 257 257 261 261 273 279 274
328 325 329 311 259 225 230 238 243 246 250 251 258 263 266 269 273 277 278 275 273 275 274 271 270 270 273 277 274 274 278 288 286 276 272 268 259 247 249 256 266 277 270
322 320 319 310 275 259 250 246 250 255 257 258 264 267 273 277 279 276 275 276 284 281 278 278 277 277 268 270 274 267 266 269 281 277 275 276 271 251 246 251 266 271 268
313 307 297 289 283 263 251 247 245 247 255 255 261 264 269 274 275 276 279 283 273 270 274 278 275 270 270 273 280 266 254 258 270 273 272 271 269 264 257 262 269 273 273
303 298 295 295 291 285 278 267 262 257 253 254 254 259 262 266 272 278 279 278 273 261 275 265 275 264 259 264 270 247 240 251 262 267 271 278 273 269 269 269 270 273 270
295 291 293 293 292 290 287 285 283 281 278 274 271 269 268 270 275 281 283 291 308 321 334 347 358 343 341 309 243 224 232 245 255 263 273 280 279 278 276 272 273 270 272
295 280 281 278 280 281 286 291 293 290 286 281 280 279 281 283 286 287 289 296 306 305 315 322 325 330 344 5 259 250 252 250 228 262 272 277 282 284 288 278 270 269 269
288 289 292 290 290 289 287 286 285 287 291 293 288 285 284 284 287 288 290 294 298 300 302 308 310 313 320 330 320 308 282 232 256 276 285 285 288 292 291 295 275 269 269
279 285 289 294 295 295 292 290 288 289 289 287 287 287 288 287 286 286 288 293 296 300 299 299 302 303 307 310 308 303 290 301 299 289 292 291 292 292 293 300 292 270 262
289 284 288 293 296 295 294 293 294 296 296 294 293 292 288 284 284 284 285 287 288 290 291 290 290 292 293 293 293 292 287 283 281 278 280 283 286 290 295 300 302 282 267
289 289 290 293 295 296 297 299 300 300 299 298 296 295 294 295 292 286 285 283 284 284 284 284 285 286 288 287 285 280 280 280 278 281 283 285 285 286 292 297 300 284 275
290 293 296 297 297 295 294 296 298 299 300 299 298 299 299 297 294 293 287 284 281 281 281 282 283 283 283 282 280 279 279 278 277 277 277 279 281 284 287 290 296 292 278
296 296 297 297 298 296 295 296 296 297 298 298 296 295 293 292 293 294 294 289 284 282 281 280 279 278 278 278 277 277 280 281 280 279 279 278 280 279 282 283 286 291 283
302 301 303 302 298 300 302 301 300 298 297 297 297 295 293 292 290 290 288 287 287 284 281 279 277 276 277 277 277 277 277 278 278 275 273 273 276 276 277 277 278 284 284
301 302 303 301 301 302 301 300 299 300 299 298 296 295 293 290 289 287 285 285 285 285 283 279 277 276 276 276 275 274 273 270 268 269 271 272 269 270 272 273 274 276 279
300 299 301 300 300 301 301 301 300 299 298 295 295 294 291 291 291 288 283 282 283 283 282 280 278 277 277 276 274 272 269 268 266 266 266 267 266 267 269 269 266 271 273
298 299 301 301 301 301 300 300 300 302 302 300 297 296 294 293 292 290 288 286 283 283 283 282 281 279 277 276 276 273 270 265 264 265 265 266 267 267 266 264 264 266 268
299 299 299 299 300 300 300 301 303 303 304 305 305 302 299 297 295 291 289 286 286 286 281 278 275 277 278 278 276 273 270 270 267 264 265 267 268 268 266 263 262 262 261
295 296 297 298 301 301 302 304 305 305 306 306 306 305 302 300 298 294 292 290 288 283 279 276 271 272 277 279 277 274 271 270 268 269 269 269 268 268 268 263 259 258 258
296 298 300 300 301 302 303 305 305 306 307 307 307 305 303 300 298 296 294 291 287 282 280 274 271 273 273 275 278 274 270 268 268 268 269 270 268 263 262 263 253 252 253
297 297 298 299 301 303 304 305 305 306 309 310 309 306 306 304 302 300 296 292 289 286 281 277 272 270 272 272 274 271 268 267 267 267 267 266 268 263 260 254 265 249 249
295 296 299 300 301 302 303 303 304 306 306 309 309 308 309 309 306 304 301 298 293 288 286 283 276 271 271 272 271 267 264 266 267 265 262 261 262 260 257 251 252 250 250
296 297 298 298 299 300 302 304 305 305 305 308 310 311 308 312 309 303 305 301 296 293 289 286 285 277 276 275 272 269 266 265 261 257 254 254 255 258 253 252 252 248 254
295 295 296 298 300 303 303 303 303 304 305 306 307 307 307 309 309 310 308 301 303 298 297 288 285 284 278 277 274 272 268 264 258 253 252 252 249 252 251 249 252 246 247